Showing default

O3B FM19, 44113

Orbit data source: Space-Track

O3B FM19, 44113 is a payload satellite owned by O3B SES (JE) that was launched on Thu, 04 Apr 2019 UTC via a SOYUZ-ST-B launch vehicle from the French Guiana (FRGUI). Payload-class satellites include a variety of spacecraft equipped with specific instruments for various scientific and technological missions. These include communications satellites like Starlink; space stations such as the ISS; scientific satellites like the Hubble; Earth observation satellites from companies like Planet Labs, Umbra, and HawkEye 360; GPS; miniature CubeSats for education and research; and military/defense satellites.

Loading next visibility...
Identifier
44113, 2019-020B
Orbit
Active
Last TLE update
15 hours ago
Origin
Manufacturer
Thales Alenia
Mission
Operational Commercial Communications
Bus & Motor
PRISMA?, LS-400 AOCS?
Mass
700 kg wet, ~500 kg dry
Launch date (UTC)
2019-04-04 (6 years ago)
Launch vehicle
SOYUZ-ST-B
Launch site
French Guiana (FRGUI)
Object type
Payload
Rocket body
Debris
Shape & HBR
Trap Box + 2 Pan, 12 m
Radar Cross Section
21.980 m², Large (>1 m²)

Expand to show TLE details & history

TLE from 15 hours ago
0 O3B FM19
1 44113U 19020B   25183.23086363 -.00000022  00000-0  00000-0 0  9990
2 44113   0.0401  30.6459 0003487  66.7821 262.6096  5.00115070113936
Epoch: 2025-07-02T05:32Z
TLE epoch observation values (Epoch: 2025-07-02T05:32:26.617Z)
Latitude
-0.02169°
Longitude
-3.62586°
Altitude
8,065.033 km
Speed
5.254 km/s
True Right ascension
23h 59m 59s
True Declination
0° 01' 18"
Sunlit
Object was in daylight at epoch
Visualization orbit readout
Latitude
0.03487°
Longitude
77.86142°
Altitude
8,059.538 km
Speed
5.256 km/s
Apparent Right ascension
04h 12m 30s
Apparent Declination
-18° 52' 26"
Sunlit
Object is in daylight
Visualization observer readout
Local Sidereal Time
08:45:13
Azimuth
241.661° WSW
Elevation
3.564°
Doppler factor
1
Orbital elements
Apogee altitude
8,073.995 km
Perigee altitude
8,063.919 km
Semi-major axis
14,447.094 km
Eccentricity
0.00035
Inclination
0.0401°
RAAN
30.6459°
Arg. of periapsis
66.7821°
True anomaly
Unknown
Mean anomaly
262.6096°
Eccentric anomaly
Unknown
Mean motion
1.24989 °/min
Orbital period
288.02 mins
BSTAR
0
Loading maneuver chart data...
Loading SW <> Apogee altitude chart data...
Loading historical data...
Loading historical data...
Loading historical data...
Loading historical data...
Loading historical data...
Loading historical data...
Loading historical data...
Other satellites on launch #20 in the year 2019 (2019-04-04 UTC)

O3B FM19 Visibility forecast

Observer location: undefined°, undefined°

Span
Click to sort rows by Start time (UTC) header in descending order
Start Az.
Max El. time (UTC)
Max El. Az.
Max El.
End time (UTC)
End Az.
79 mins2025-07-02 21:11:06.208Z232.482° WSW2025-07-02 21:51:06.208Z179.658° S24.402°2025-07-02 22:30:06.208Z128.114° SE
78 mins2025-07-03 03:12:06.208Z231.432° WSW2025-07-03 03:51:06.208Z179.661° S24.358°2025-07-03 04:30:06.208Z128.199° SE
78 mins2025-07-03 09:12:06.208Z231.427° WSW2025-07-03 09:51:06.208Z179.751° S24.338°2025-07-03 10:30:06.208Z128.213° SE
78 mins2025-07-03 15:12:06.208Z231.487° WSW2025-07-03 15:51:06.208Z179.749° S24.382°2025-07-03 16:30:06.208Z128.129° SE
|